ADVERTISEMENT

iOS app on App Store Android app on Google Play

2018 \ LA Life Run - May 6, 2018

Notes Pages Download Filter By
Unknown runners email us at results@geminitiming.com - Thanks! 1 [2] 3 4 5 6 7




Keyword Exact  
Division

Bib First Name Last Name City State Total Time Overall
604 Mi Kim Buena Park CA 00:27:39 101
805 janet de santiago West Covina CA 00:27:40 102
577 UNKNOWN RUNNER -- 00:27:41 103
806 olivia perez Los Angeles CA 00:27:41 104
558 Tempest Hargraves Carlsbad CA 00:27:42 105
218 Roberto Nava Los Angeles CA 00:27:45 106
536 Johndiego White Los Angeles CA 00:27:46 107
588 Steven Copeland Temecula CA 00:27:46 109
239 Cristina Rodriguez Sylmar CA 00:27:46 108
217 Alondra Nava Los Angeles CA 00:27:49 110
468 UNKNOWN RUNNER -- 00:27:50 111
114 Eduardo Huerta Los Angeles CA 00:27:51 112
266 Xiaolong Zhao Buena Park CA 00:27:56 113
393 Mitch Agorrilla Los Angeles CA 00:28:00 114
563 Jose A. Gonzalez Los Angeles CA 00:28:03 115
464 Juliana Campos Los Angeles CA 00:28:07 116
754 Hosmin hernandez CA 00:28:11 117
845 Mark Schwartz Beverly Hills CA 00:28:12 118
541 Ella Isaac Valley Village CA 00:28:20 119
637 Samantha Ibarra Norwalk CA 00:28:23 120
271 Julian Ibarra Norwalk CA 00:28:24 121
765 jose chavez CA 00:28:29 125
495 Debra Kawahara Manhattan Beach CA 00:28:29 124
424 Melody Del Cid Lynwood CA 00:28:29 123
140 Lily Bull Studio City CA 00:28:29 122
448 Vuthikorn Punthongsawasdi Los Angeles CA 00:28:32 126
798 ERIN WEHRENBERG Burbank CA 00:28:32 127
402 melody avila Panorama City CA 00:28:34 128
306 UNKNOWN RUNNER -- 00:28:36 129
606 Stanley Kim Buena Park CA 00:28:36 130
390 Jennifer Toy Los Angeles CA 00:28:41 131
310 Max Liebmann Glendale CA 00:28:43 133
262 Juan Garcia Los Angeles CA 00:28:43 132
580 UNKNOWN RUNNER -- 00:28:48 134
840 Arturo Garcia Jr. Van Nuys CA 00:28:51 135
625 Dennis McDonald -- 00:28:53 136
524 Qiannan Zhang -- 00:28:55 137
849 Julianne Paragas La Habra CA 00:28:55 138
737 evelinrose rodriguez CA 00:28:58 139
224 MARK MOYNIHAN Orange CA 00:29:08 140
533 Irene Rivera Signal Hill CA 00:29:11 141
162 Diana Louie Los Angeles CA 00:29:21 142
735 Destiny clark CA 00:29:26 143
829 Chase Cater Beaumont CA 00:29:28 144
353 Jill Plumb Los Angeles CA 00:29:32 145
581 UNKNOWN RUNNER -- 00:29:33 146
130 Isela Alvarez Lake Elsinore CA 00:29:34 147
768 christopher sanchez CA 00:29:38 149
833 ROCIO GAXIOLA Los Angeles CA 00:29:38 148
744 Jessica Nicolas Los Angeles CA 00:29:41 150
776 gabriela rivera Los Angeles CA 00:29:42 151
777 MAYRA PERALTA Los Angeles CA 00:29:43 152
589 Iris Gonzales Temecula CA 00:29:46 153
837 Glorinda Frias Rosemead CA 00:29:49 154
474 UNKNOWN RUNNER -- 00:29:51 155
484 Roxana Ramos Lawndale CA 00:29:57 156
494 Rocio Rocha Huntington Park CA 00:30:01 157
206 Melanie Lebel Winnetka CA 00:30:08 158
846 Eder Souza Sherman Oaks CA 00:30:13 159
328 Michele Pusateri South Pasadena CA 00:30:16 160
802 sandy tovar Inglewood CA 00:30:18 161
629 UNKNOWN RUNNER -- 00:30:20 162
825 Taylor Frankel West Hills CA 00:30:22 163
800 Maria Esparza Altadena CA 00:30:24 164
216 Samantha Chagoya Los Angeles CA 00:30:24 165
662 Elayna Fenelon Los Angeles CA 00:30:26 166
831 Lucinda Cater Beaumont CA 00:30:27 167
479 Marie Cairns-Berteau Los Angeles CA 00:30:28 168
245 Marcos Rodriguez Lancaster CA 00:30:31 169
576 UNKNOWN RUNNER -- 00:30:32 171
756 Jesus reyes CA 00:30:32 170
261 Frederik Garcia Los Angeles CA 00:30:34 172
235 odilia Gomez Los Angeles CA 00:30:34 173
814 Rachel Blocher Los Angeles CA 00:30:41 174
548 Amber Guzman Panorama City CA 00:30:47 175
429 Monique Turner Culver City CA 00:30:49 176
750 kim dohner CA 00:30:50 177
733 violet ruiz CA 00:30:52 178
482 William Goodin Manhattan Beach CA 00:30:59 179
503 Jesus Macias chihuahua 00:31:03 180
459 raquel mandelbaum Los Angeles CA 00:31:04 181
337 UNKNOWN RUNNER -- 00:31:08 182
330 UNKNOWN RUNNER -- 00:31:15 184
242 Elizabeth Velasquez La Verne CA 00:31:15 183
726 roberto rojas CA 00:31:20 185
508 Alexander Silva Inglewood CA 00:31:21 186
725 UNKNOWN RUNNER -- 00:31:24 187
817 Sandy Reynosa Sylmar CA 00:31:25 188
813 Carlos Batres Los Angeles CA 00:31:27 189
313 Kenny Aranda Los Angeles CA 00:31:27 190
441 Jesica Hercules Los Angeles CA 00:31:28 191
444 Jennifer Neprud Azusa CA 00:31:29 192
227 Kayla Tanijiri Granada Hills CA 00:31:33 193
205 Kathrin Kautz Nuembrecht -- 00:31:35 197
158 Lizette Farias Pacoima CA 00:31:35 195
835 Linh Diep El Monte CA 00:31:35 194
129 Mina Sanchez Lake Elsinore CA 00:31:35 196
567 Martha Cruz Pico Rivera CA 00:31:37 198
740 deborah hafford CA 00:31:38 199
779 Brandon Guevara Pico Rivera CA 00:31:39 200
Notes Pages Download Filter By
Unknown runners email us at results@geminitiming.com - Thanks! 1 [2] 3 4




Keyword Exact  
Division

Bib First Name Last Name City State Total Time Overall
1454 UNKNOWN RUNNER -- 00:52:55 101
1385 Harream Purdie Los Angeles CA 00:52:58 102
1487 UNKNOWN RUNNER -- 00:53:05 103
1157 Genevieve Dunaway Los Angeles CA 00:53:08 104
1214 Victor Godinez Rosemead CA 00:53:09 105
1125 Jon-Erik Cendejas Long Beach CA 00:53:18 106
1276 JOSE BERNAL Lancaster CA 00:53:22 107
1025 Naomi Yokota Pasadena CA 00:53:34 108
1154 Darryl Kanouse Redondo Beach CA 00:53:38 109
1425 Erika Salinas Azusa CA 00:53:42 110
1333 Tanner Scharch North Hollywood CA 00:53:45 112
1115 Claudio Lopez Los Angeles CA 00:53:45 111
1224 Frank Rodriguez Burbank CA 00:53:50 113
1006 Fransisco Lozano Panorama City CA 00:53:50 114
1153 WILSON JAO TAN CEMBRANO Alhambra CA 00:53:52 115
1476 Narciso Iglesias Hemet CA 00:53:55 116
1389 Hasan Ivra Compton CA 00:53:56 117
1156 Katie Martino Los Angeles CA 00:54:08 118
1382 Brenda Baten Los Angeles CA 00:54:16 119
1027 Luke Delgado Pasadena CA 00:54:20 120
1140 Matthew Mello Long Beach CA 00:54:33 121
1023 Jackie Owens Culver City CA 00:54:43 122
1015 Brandon Ice Claremont CA 00:54:49 123
1307 Urias Patricia Los Angeles CA 00:54:50 124
1317 Stephen Jones Los Angeles CA 00:54:53 125
1446 UNKNOWN RUNNER -- 00:54:56 126
1132 Megan Heneghan North Hollywood CA 00:55:25 127
1271 Erick Hernandez Los Angeles CA 00:55:28 128
1483 Monica Lopez Pasadena CA 00:55:33 129
1026 Frank Bertone Marina Del Rey CA 00:55:35 130
1349 UNKNOWN RUNNER -- 00:55:49 131
1379 ALFREDO VARGAS Los Angeles CA 00:55:50 132
1259 Moises Lopez Los Angeles CA 00:55:51 133
1498 Raj George Los Angeles CA 00:55:55 134
1421 Andres Echeverry Los Angeles CA 00:55:58 135
1251 Jeffrey Timm Van Nuys CA 00:56:08 136
1160 Francisca Saucedo Lancaster CA 00:56:25 137
1424 Veronica Burris San Dimas CA 00:56:30 138
1213 Sirena Ling West Covina CA 00:56:31 139
1169 Jen Rutt Los Angeles CA 00:56:37 140
1270 Maribel Burgueno Los Angeles CA 00:56:47 141
1377 Joseph Manahan Los Angeles CA 00:56:51 142
1107 Jose Ruelas Los Angeles CA 00:57:16 143
1331 Nicole Recto Reseda CA 00:57:18 144
1397 Sven Nolte Haan -- 00:57:24 145
1461 Suhad Mughrabi Lake Forest CA 00:57:25 146
1312 Lupe Hernandez Garden Grove CA 00:57:26 147
1335 Jose Juarez Los Angeles CA 00:57:29 148
1230 Edwino Francisco Anaheim CA 00:57:49 149
1229 Julieta Francisco Anaheim CA 00:57:52 150
1166 Mayra Diaz Lancaster CA 00:57:53 151
1456 UNKNOWN RUNNER -- 00:58:01 152
1471 George Graziano Newbury Park CA 00:58:04 153
1347 Christian Martinez Oxnard CA 00:58:08 154
1343 UNKNOWN RUNNER -- 00:58:10 155
1396 Caroline Nolte Pasadena CA 00:58:16 156
746 Megan Summerlyn CA 00:58:17 157
1105 Lorena Aburto Los Angeles CA 00:58:18 158
1348 UNKNOWN RUNNER -- 00:58:19 159
1341 Hio Weng Leong Chino Hills CA 00:58:32 160
1279 Sandesh Kuchipudi Chicago IL 00:58:47 161
1447 UNKNOWN RUNNER -- 00:58:56 162
1252 Veronica Rodriguez Montebello CA 00:59:00 163
1256 Brigid Schmidt Playa Vista CA 00:59:02 164
1387 Krista Novelli Edwards CA 00:59:08 165
1340 Kharmelyn Lopez Atlanta GA 00:59:14 166
1124 Jeanne Quan Pasadena CA 00:59:26 167
1112 Rafael Luna Carson CA 00:59:28 168
1004 AMBAR CLARIZIO Glendora CA 00:59:31 169
1311 ROSALINA CLARIZIO Glendora CA 00:59:31 170
1266 Edwin Lee Chino Hills CA 00:59:40 171
1280 Nitanth Vangala Claremont CA 00:59:41 172
1250 Karla Timm Van Nuys CA 00:59:54 173
1138 Cristina Bermudez Sylmar CA 00:59:57 174
1109 Ruben Rosas Salazar Long Beach CA 00:59:57 175
1325 Annie To Torrance CA 00:59:58 176
1063 Tarah Novelli Pasadena CA 01:00:02 177
1429 Fern Nualkhair Los Angeles CA 01:00:17 178
1323 Richard Tom South Pasadena CA 01:00:26 179
1478 Estefani Navarro Pacoima CA 01:00:27 180
1457 UNKNOWN RUNNER -- 01:00:33 181
1007 James Stanley Burbank CA 01:00:54 182
1305 Elena Lopez Los Angeles CA 01:01:02 183
1010 Azahar Lopez Galvin Irvine CA 01:01:07 184
1242 Elizabeth Flores-Arroyo Los Angeles CA 01:01:08 185
1038 Maddi Pariser Calabasas CA 01:01:11 186
1495 Samantha Denton Canoga Park CA 01:01:18 187
1283 Jessica Sarlabous Paris -- 01:01:20 188
1301 Christopher Skinner San Pedro CA 01:01:26 189
1161 Lauren Reedy Los Angeles CA 01:01:29 190
1135 jen tamor Los Angeles CA 01:01:43 191
1001 Jaqueline Sanchez Los Angeles CA 01:01:57 192
1164 Norma Martinez Los Angeles CA 01:02:03 193
1433 Fang Hou Diamond Bar CA 01:02:06 194
1373 Angel Figueroa Van Nuys CA 01:02:08 195
1237 Maria Antonia Magana Lynwood CA 01:02:14 196
1039 Kittipong Promkiree Pacific Palisades CA 01:02:20 197
1322 Daniel Garcia Pico Rivera CA 01:02:24 198
1147 Denia Garcia Hacienda Heights CA 01:02:25 199
1128 LATASHA ESPERON Garden Grove CA 01:02:26 200